User: anonymous   Login
Location: Unspecified
(0.0000°N, 0.0000°E)
Time: 05:30:41
(UTC+00:00)
Language:

POSAT 1 - Orbit

View from above orbital plane
View from above orbital plane
View from above satellite
View from above satellite

Ground track
Ground track

The orbit data is extracted from the following two-line orbital elements,

1 22829U 93061G   17177.73273241 -.00000022 +00000-0 +91290-5 0  9995
2 22829 098.8011 145.0497 0008632 251.4137 230.5869 14.30971102239223
Epoch (UTC): 26 June 2017 17:35:08
Eccentricity: 0.0008632
inclination: 98.8011°
perigee height: 782 km
apogee height: 794 km
right ascension of ascending node: 145.0497°
argument of perigee: 251.4137°
revolutions per day: 14.30971102
mean anomaly at epoch: 230.5869°
orbit number at epoch: 23922

The dashed part of the orbit path shows where the satellite is in the earth's shadow,  

DLR